Date String (YYYY-MM-DD hh:mm:ss) UTC,Instrument flags,Ambient pressure (hPa),Sample flow (lpm),Bypass flow (lpm),Sample temperature (°C),Ambient temperature (°C),ASC tube jacket temperature (°C),LED temperature (°C),Box temperature (°C),Sample RH (%),Span deviation,Mass concentration (μg/m³),Mass concentration (μg/m³),Mass concentration (μg/m³)
DateTimeUTC,F1_M11,P_M11,Q1_M11,Q2_M11,T1_M11,T2_M11,T3_M11,T4_M11,T5_M11,U1_M11,ZSPAN_M11,X2_M11,X0_M11,X1_M11
2023-02-20 21:00:00,,0816.9,4.99,0.00,22.0,20.9,00.0,30.8,23.9,12.8,0000.0,0000.63,0001.28,0000.34
2023-02-20 21:01:00,,0816.8,5.01,0.00,22.0,20.9,00.0,30.8,23.9,13.0,0000.0,0000.60,0001.19,0000.34
2023-02-20 21:02:00,,0816.9,5.01,0.00,22.0,20.9,00.0,30.8,23.9,12.8,0000.0,0000.60,0001.21,0000.33
2023-02-20 21:03:00,,0816.9,4.98,0.00,22.0,20.9,00.0,30.8,23.8,12.9,0000.0,0000.61,0001.19,0000.33
2023-02-20 21:04:00,,0817.1,4.99,0.00,22.0,20.9,00.0,30.8,23.9,13.3,0000.0,0000.62,0001.24,0000.34
2023-02-20 21:05:00,,0817.0,4.98,0.00,22.0,20.9,00.0,30.8,23.9,13.1,0000.0,0000.56,0001.11,0000.34
2023-02-20 21:06:00,,0816.9,4.99,0.00,22.1,20.9,00.0,30.8,23.9,12.6,0000.0,0000.56,0001.21,0000.34
2023-02-20 21:07:00,,0816.9,5.00,0.00,22.1,20.9,00.0,30.8,23.9,12.6,0000.0,0000.54,0001.20,0000.33
2023-02-20 21:08:00,,0817.2,4.99,0.00,22.1,20.9,00.0,30.9,23.9,12.7,0000.0,0000.54,0001.18,0000.34
2023-02-20 21:09:00,,0817.0,4.99,0.00,22.1,20.9,00.0,30.9,24.0,12.8,0000.0,0000.54,0001.19,0000.34
2023-02-20 21:10:00,,0816.9,5.01,0.00,22.1,20.9,00.0,30.9,24.0,12.9,0000.0,0000.54,0001.24,0000.34
2023-02-20 21:11:00,,0817.0,4.99,0.00,22.1,21.0,00.0,30.9,24.0,13.0,0000.0,0000.53,0001.13,0000.34
2023-02-20 21:12:00,,0816.9,5.02,0.00,22.1,21.0,00.0,30.9,24.0,13.0,0000.0,0000.53,0001.12,0000.34
2023-02-20 21:13:00,,0817.3,5.00,0.00,22.1,21.0,00.0,30.9,24.0,12.9,0000.0,0000.51,0001.06,0000.34
2023-02-20 21:14:00,,0817.0,5.01,0.00,22.2,21.0,00.0,30.9,24.0,13.0,0000.0,0000.52,0001.12,0000.33
2023-02-20 21:15:00,,0816.8,5.01,0.00,22.2,21.0,00.0,30.9,24.0,12.8,0000.0,0000.52,0001.10,0000.32
2023-02-20 21:16:00,,0817.0,5.00,0.00,22.2,21.0,00.0,31.0,24.0,12.6,0000.0,0000.51,0001.10,0000.31
2023-02-20 21:17:00,,0817.1,5.02,0.00,22.2,21.0,00.0,31.0,24.1,12.5,0000.0,0000.48,0000.91,0000.31
2023-02-20 21:18:00,,0817.3,5.00,0.00,22.2,21.0,00.0,31.0,24.1,12.5,0000.0,0000.48,0000.88,0000.31
2023-02-20 21:19:00,,0817.4,5.00,0.00,22.2,21.1,00.0,31.0,24.1,12.5,0000.0,0000.50,0000.99,0000.31
2023-02-20 21:20:00,,0817.2,5.00,0.00,22.2,21.1,00.0,31.0,24.1,12.6,0000.0,0000.50,0001.14,0000.30
2023-02-20 21:21:00,,0817.1,5.01,0.00,22.2,21.1,00.0,31.0,24.1,12.9,0000.0,0000.50,0002.69,0000.29
2023-02-20 21:22:00,,0817.2,4.99,0.00,22.2,21.1,00.0,31.0,24.1,12.8,0000.0,0000.52,0002.96,0000.29
2023-02-20 21:23:00,,0816.9,5.00,0.00,22.2,21.1,00.0,31.0,24.1,12.7,0000.0,0000.54,0003.02,0000.29
2023-02-20 21:24:00,,0816.9,5.00,0.00,22.2,21.0,00.0,31.0,24.1,12.8,0000.0,0000.55,0003.08,0000.29
2023-02-20 21:25:00,,0817.0,5.00,0.00,22.3,21.0,00.0,31.0,24.1,13.0,0000.0,0000.52,0003.02,0000.29
2023-02-20 21:26:00,,0816.9,5.00,0.00,22.3,21.0,00.0,31.0,24.1,12.8,0000.0,0000.52,0002.99,0000.29
2023-02-20 21:27:00,,0817.1,5.00,0.00,22.3,21.0,00.0,31.0,24.1,12.8,0000.0,0000.53,0003.41,0000.29
2023-02-20 21:28:00,,0816.9,5.00,0.00,22.3,21.0,00.0,31.0,24.1,12.7,0000.0,0000.52,0003.87,0000.28
2023-02-20 21:29:00,,0816.8,5.01,0.00,22.3,21.0,00.0,31.1,24.1,12.7,0000.0,0000.53,0004.16,0000.28
2023-02-20 21:30:00,,0816.9,5.00,0.00,22.2,20.9,00.0,31.1,24.1,12.7,0000.0,0000.54,0004.45,0000.28
2023-02-20 21:31:00,,0816.8,5.01,0.00,22.2,20.8,00.0,31.1,24.0,12.7,0000.0,0000.57,0004.43,0000.28
2023-02-20 21:32:00,,0816.8,4.99,0.00,22.2,20.8,00.0,31.0,24.0,12.9,0000.0,0000.58,0003.23,0000.29
2023-02-20 21:33:00,,0817.1,5.00,0.00,22.2,20.8,00.0,31.0,24.0,12.8,0000.0,0000.61,0002.72,0000.29
2023-02-20 21:34:00,,0817.1,4.99,0.00,22.2,20.8,00.0,31.0,24.0,13.0,0000.0,0000.61,0002.73,0000.29
2023-02-20 21:35:00,,0816.9,5.01,0.00,22.2,20.8,00.0,31.0,24.0,13.1,0000.0,0000.64,0002.79,0000.29
2023-02-20 21:36:00,,0817.0,5.00,0.00,22.2,20.7,00.0,31.0,24.0,13.0,0000.0,0000.70,0002.94,0000.30
2023-02-20 21:37:00,,0817.1,5.00,0.00,22.2,20.8,00.0,31.0,24.0,13.1,0000.0,0000.72,0002.96,0000.30
2023-02-20 21:38:00,,0817.0,5.00,0.00,22.2,20.8,00.0,31.0,24.0,13.5,0000.0,0000.75,0002.81,0000.31
2023-02-20 21:39:00,,0816.9,4.99,0.00,22.2,20.7,00.0,31.0,24.0,13.4,0000.0,0000.79,0002.71,0000.32
2023-02-20 21:40:00,,0817.1,5.01,0.00,22.2,20.7,00.0,31.0,24.0,13.2,0000.0,0000.83,0002.64,0000.33
2023-02-20 21:41:00,,0817.0,5.00,0.00,22.2,20.7,00.0,31.0,24.0,13.5,0000.0,0000.83,0002.51,0000.34
2023-02-20 21:42:00,,0816.8,5.00,0.00,22.2,20.6,00.0,31.0,23.9,13.5,0000.0,0000.89,0002.88,0000.36
2023-02-20 21:43:00,,0817.0,5.02,0.00,22.1,20.6,00.0,31.0,23.9,13.5,0000.0,0000.96,0003.24,0000.38
2023-02-20 21:44:00,,0817.2,5.00,0.00,22.1,20.6,00.0,31.0,23.8,13.3,0000.0,0001.05,0005.31,0000.40
2023-02-20 21:45:00,,0817.2,4.98,0.00,22.1,20.6,00.0,31.0,23.9,13.5,0000.0,0001.12,0006.61,0000.41
2023-02-20 21:46:00,,0817.1,5.01,0.00,22.1,20.6,00.0,31.0,23.9,13.6,0000.0,0001.15,0006.66,0000.41
2023-02-20 21:47:00,,0817.3,5.00,0.00,22.1,20.6,00.0,31.0,23.8,13.7,0000.0,0001.12,0006.60,0000.41
2023-02-20 21:48:00,,0817.4,5.01,0.00,22.1,20.6,00.0,31.0,23.8,13.8,0000.0,0001.11,0006.63,0000.42
2023-02-20 21:49:00,,0817.5,5.02,0.00,22.1,20.6,00.0,31.0,23.9,13.8,0000.0,0001.13,0007.13,0000.43
2023-02-20 21:50:00,,0817.3,4.99,0.00,22.1,20.6,00.0,31.0,23.9,13.8,0000.0,0001.15,0006.76,0000.43
2023-02-20 21:51:00,,0817.5,5.01,0.00,22.1,20.7,00.0,31.0,23.9,13.7,0000.0,0001.14,0006.64,0000.43
2023-02-20 21:52:00,,0817.6,5.00,0.00,22.1,20.7,00.0,31.0,23.9,13.6,0000.0,0001.15,0006.49,0000.43
2023-02-20 21:53:00,,0817.2,4.99,0.00,22.1,20.7,00.0,30.9,23.9,13.6,0000.0,0001.08,0005.98,0000.43
2023-02-20 21:54:00,,0817.4,5.01,0.00,22.1,20.6,00.0,30.9,23.8,13.3,0000.0,0001.00,0005.61,0000.42
2023-02-20 21:55:00,,0817.3,4.99,0.00,22.1,20.6,00.0,30.9,23.8,13.3,0000.0,0000.92,0003.90,0000.41
2023-02-20 21:56:00,,0817.3,4.99,0.00,22.1,20.6,00.0,30.9,23.8,13.6,0000.0,0000.84,0002.24,0000.40
2023-02-20 21:57:00,,0817.3,4.99,0.00,22.1,20.6,00.0,30.9,23.8,13.4,0000.0,0000.82,0002.17,0000.41
2023-02-20 21:58:00,,0817.0,5.01,0.00,22.1,20.6,00.0,30.9,23.8,13.4,0000.0,0000.80,0002.12,0000.41
2023-02-20 21:59:00,,0816.9,5.00,0.00,22.1,20.5,00.0,30.9,23.8,13.6,0000.0,0000.85,0002.26,0000.41
